Location: Kalwaria Zebrzydowska
(49.8686°N, 19.6647°E)
Time: 00:58:16
(UTC+02:00)

Tiangong 2 - Visible Passes

Search period start: 21 May 2019 00:00
Search period end: 31 May 2019 00:00
Orbit: 379 x 387 km, 42.8° (Epoch: 20 May)

Date Brightness Start Highest point End Pass type
(mag) Time Alt. Az. Time Alt. Az. Time Alt. Az.
21 May 2.5 22:01:28 10° SW 22:03:49 20° S 22:03:51 20° SSE visible
22 May 2.8 22:37:36 10° SW 22:39:08 19° SSW 22:39:08 19° SSW visible
23 May 2.5 21:37:47 10° SW 21:40:16 22° S 21:42:00 14° SE visible
23 May 3.8 23:14:10 10° WSW 23:14:11 10° WSW 23:14:11 10° WSW visible
24 May 2.5 22:14:08 10° WSW 22:16:34 21° S 22:16:53 21° S visible
25 May 2.5 21:14:12 10° SW 21:16:43 22° S 21:19:14 10° SE visible
25 May 3.4 22:50:58 10° SW 22:51:41 13° SW 22:51:41 13° SW visible
26 May 2.8 21:50:44 10° WSW 21:52:59 18° SSW 21:54:15 15° SSE visible
27 May 3.5 22:28:17 10° SW 22:28:57 11° SSW 22:28:57 11° SSW visible
28 May 3.2 21:27:29 10° SW 21:29:20 15° SSW 21:31:11 10° SSE visible
